x

Pembrey Sands Samos (03605) Weather Station

8:00 - Sat 31st Jan 2015 All times are GMT.

  • Wind
    21mph, 43mph gusts
  • Aire Temp 40°f
  • Sea Pressure 999mb
  • Pembrey Sands Samos
  • Pembrey Sands Samos

More Historic Weather Station data

Upgrade to MSW Pro to gain access to the past 30 days of data for over 8000 Wavebouys and Weather Stations around the globe.

Join Pro

Comparision Forecast

View Surf forecast
   
sáb 01/31 8:00 21 43 mph 999mb 40f
7:00 23 41 mph 998mb 40f
6:00 21 34 mph 997mb 40f
5:00 16 47 mph 996mb 37f
4:00 24 53 mph 995mb 39f
3:00 24 46 mph 994mb 42f
2:00 19 43 mph 992mb 43f
1:00 18 51 mph 991mb 41f
12:00 25 39 mph 991mb 39f
11:00 17 43 mph 990mb 39f
10:00 28 45 mph 988mb 38f
9:00 33 48 mph 987mb 37f
8:00 19 39 mph 986mb 42f
7:00 32 44 mph 984mb 41f
6:00 31 41 mph 984mb 40f
5:00 25 38 mph 984mb 40f
4:00 22 36 mph 983mb 39f
3:00 25 38 mph 984mb 38f
2:00 26 36 mph 983mb 40f
1:00 21 31 mph 983mb 39f
12:00 23 30 mph 983mb 39f
vie 01/30 11:00 19
mph
983mb 39f
10:00 16
mph
983mb 38f
9:00 10
mph
983mb 38f
8:00 15 33 mph 983mb 36f
7:00 16
mph
983mb 40f
6:00 17
mph
983mb 42f
5:00 18
mph
983mb 42f
4:00 18 29 mph 983mb 44f
3:00 24 30 mph 983mb 45f
2:00 19 29 mph 983mb 44f
1:00 22 30 mph 984mb 45f
12:00 19 29 mph 984mb 44f
11:00 18 29 mph 984mb 43f
10:00 11
mph
983mb 42f
9:00 13
mph
983mb 41f
8:00 9
mph
983mb 39f
7:00 17
mph
982mb 39f
6:00 11 52 mph 982mb 38f
5:00 26 61 mph 981mb 40f
4:00 45 59 mph 978mb 40f
3:00 41 57 mph 978mb 42f
2:00 38 52 mph 978mb 43f
1:00 36 48 mph 979mb 43f
12:00 33 47 mph 981mb 43f
jue 01/29 11:00 32 40 mph 982mb 42f
10:00 25 34 mph 983mb 41f
9:00 26 34 mph 983mb 40f
8:00 26 37 mph 983mb 39f
7:00 26 36 mph 983mb 39f
6:00 28 40 mph 983mb 39f
5:00 33 41 mph 982mb 39f
4:00 29 40 mph 982mb 40f
3:00 32 43 mph 981mb 38f
2:00 25 61 mph 982mb 36f
1:00 29 39 mph 983mb 38f
12:00 29 44 mph 984mb 40f
11:00 25 39 mph 985mb 41f
10:00 30 41 mph 987mb 40f
9:00 21 34 mph 988mb 41f
8:00 26 37 mph 990mb 40f
7:00 19 30 mph 991mb 41f
6:00 25 40 mph 992mb 42f
5:00 28 41 mph 994mb 42f
4:00 26 41 mph 995mb 41f
3:00 24 33 mph 996mb 42f
2:00 31 43 mph 998mb 40f
1:00 26 36 mph 999mb 42f
12:00 30 45 mph 1000mb 40f
mié 01/28 11:00 26 41 mph 1001mb 41f
10:00 30 40 mph 1002mb 42f
9:00 25 34 mph 1003mb 42f
8:00 30 38 mph 1004mb 41f
7:00 23 29 mph 1005mb 40f
6:00 25 46 mph 1005mb 39f
5:00 31 43 mph 1005mb 41f
4:00 30 39 mph 1006mb 42f
3:00 30 44 mph 1006mb 43f
2:00 33 47 mph 1006mb 44f
1:00 34 48 mph 1006mb 44f
12:00 30 41 mph 1006mb 43f
11:00 33 55 mph 1005mb 41f
10:00 26 60 mph 1004mb 46f
9:00 34 48 mph 1004mb 49f
8:00 36 54 mph 1005mb 48f
7:00 34 43 mph 1006mb 49f
6:00 30 39 mph 1007mb 49f
5:00 26 31 mph 1009mb 48f
4:00 22 30 mph 1011mb 48f
3:00 26 33 mph 1013mb 48f
2:00 26 30 mph 1015mb 47f
1:00 24 32 mph 1016mb 47f
12:00 25 31 mph 1017mb 47f
mar 01/27 11:00 21 31 mph 1020mb 46f
10:00 21 29 mph 1021mb 46f
9:00 10
mph
1022mb 46f